Location: Newark
(48.5667°N, 7.8167°E)
Time: 05:00:43
(UTC+00:00)

JY1SAT - Pass Details

Date: 29 July 2021
Orbit: 568 x 591 km, 97.7° (Epoch: 19 September)

Event Time Altitude Azimuth Distance (km) Brightness Sun altitude
Exits shadow 21:12:52 24° 177° (S) 1,223 ? -15.8°
Maximum altitude 21:15:17 72° 258° (WSW) 625 ? -16.0°
Drops below altitude 10° 21:19:28 10° 343° (NNW) 1,930 ? -16.4°
Sets 21:21:39 0° 345° (NNW) 2,838 ? -16.6°
